WIF4HF ENTO-ENBR

Flight info

Callsign WIF4HF
Flight time 1h 6m
Altitude 24000
Route BAKIV DCT PESUR
Aircraft DH8D/M-SDE2E3FGRY/H

Departure

Time 2026-05-06 18:11
Airport Sandefjord Airport, Torp (ENTO)

Arrival

Time 2026-05-06 19:17
Airport Bergen Airport, Flesland (ENBR)
Time Latitude Longitude Altitude Speed Heading
2026-05-06 17:44 59.18001 10.25408 296 ft 0 kts 224°
2026-05-06 18:04 59.18003 10.25411 296 ft 3 kts 224°
2026-05-06 18:04 59.18016 10.25465 293 ft 5 kts 273°
2026-05-06 18:04 59.17996 10.25534 289 ft 6 kts 333°
2026-05-06 18:04 59.17987 10.25540 289 ft 0 kts 356°
2026-05-06 18:06 59.17989 10.25540 289 ft 1 kts 356°
2026-05-06 18:06 59.18048 10.25537 290 ft 10 kts 359°
2026-05-06 18:06 59.18113 10.25563 290 ft 10 kts 45°
2026-05-06 18:06 59.18173 10.25688 283 ft 14 kts 49°
2026-05-06 18:07 59.18246 10.25842 278 ft 16 kts 42°
2026-05-06 18:07 59.18349 10.25869 279 ft 18 kts 358°
2026-05-06 18:07 59.18472 10.25865 282 ft 33 kts 358°
2026-05-06 18:07 59.18876 10.25855 294 ft 53 kts 358°
2026-05-06 18:08 59.19214 10.25847 300 ft 42 kts 359°
2026-05-06 18:08 59.19482 10.25841 297 ft 35 kts 359°
2026-05-06 18:08 59.19707 10.25835 293 ft 28 kts 359°
2026-05-06 18:08 59.19829 10.25908 290 ft 11 kts 20°
2026-05-06 18:09 59.19828 10.25833 290 ft 6 kts 187°
2026-05-06 18:09 59.19823 10.25833 290 ft 0 kts 179°
2026-05-06 18:10 59.19795 10.25833 291 ft 19 kts 180°
2026-05-06 18:10 59.19566 10.25836 296 ft 80 kts 178°
2026-05-06 18:10 59.18416 10.25870 390 ft 149 kts 182°
2026-05-06 18:11 59.17365 10.25830 962 ft 157 kts 183°
2026-05-06 18:11 59.16642 10.25816 1433 ft 159 kts 182°
2026-05-06 18:11 59.15160 10.25825 2396 ft 163 kts 182°
2026-05-06 18:11 59.14037 10.25837 3106 ft 166 kts 181°
2026-05-06 18:12 59.12861 10.25853 3723 ft 176 kts 181°
2026-05-06 18:12 59.11623 10.25852 4396 ft 182 kts 185°
2026-05-06 18:12 59.10513 10.24885 5024 ft 181 kts 233°
2026-05-06 18:12 59.10298 10.22609 5642 ft 179 kts 288°
2026-05-06 18:13 59.10921 10.20474 6267 ft 188 kts 304°
2026-05-06 18:13 59.11699 10.18411 6956 ft 195 kts 307°
2026-05-06 18:13 59.12540 10.16335 7683 ft 199 kts 308°
2026-05-06 18:13 59.13409 10.14287 8431 ft 202 kts 308°
2026-05-06 18:14 59.14315 10.12215 9220 ft 204 kts 308°
2026-05-06 18:14 59.15253 10.10114 10013 ft 206 kts 308°
2026-05-06 18:14 59.16185 10.08059 10785 ft 207 kts 308°
2026-05-06 18:14 59.17130 10.05997 11586 ft 207 kts 308°
2026-05-06 18:15 59.18090 10.03921 12394 ft 207 kts 307°
2026-05-06 18:15 59.19045 10.01862 13156 ft 210 kts 307°
2026-05-06 18:15 59.20056 9.99677 13554 ft 228 kts 307°
2026-05-06 18:15 59.21176 9.97254 13816 ft 248 kts 307°
2026-05-06 18:16 59.22367 9.94689 14193 ft 261 kts 308°
2026-05-06 18:16 59.23590 9.92068 14629 ft 270 kts 308°
2026-05-06 18:16 59.24870 9.89328 15093 ft 276 kts 308°
2026-05-06 18:16 59.26158 9.86576 15590 ft 280 kts 308°
2026-05-06 18:17 59.27474 9.83764 16118 ft 283 kts 307°
2026-05-06 18:17 59.28807 9.80914 16657 ft 285 kts 307°
2026-05-06 18:17 59.30148 9.78045 17196 ft 286 kts 307°
2026-05-06 18:17 59.31480 9.75192 17737 ft 287 kts 307°
2026-05-06 18:18 59.32816 9.72328 18281 ft 288 kts 307°
2026-05-06 18:18 59.34166 9.69431 18835 ft 288 kts 306°
2026-05-06 18:18 59.35054 9.67525 19204 ft 289 kts 306°
2026-05-06 18:18 59.36847 9.63669 19946 ft 290 kts 306°
2026-05-06 18:19 59.38200 9.60754 20508 ft 290 kts 306°
2026-05-06 18:19 59.39548 9.57846 21065 ft 291 kts 305°
2026-05-06 18:19 59.40908 9.54910 21632 ft 291 kts 305°
2026-05-06 18:19 59.42255 9.51997 22190 ft 292 kts 306°
2026-05-06 18:20 59.43630 9.49021 22772 ft 292 kts 305°
2026-05-06 18:20 59.44519 9.47095 23143 ft 292 kts 305°
2026-05-06 18:20 59.46308 9.43217 23794 ft 279 kts 304°
2026-05-06 18:20 59.47602 9.40398 23888 ft 280 kts 304°
2026-05-06 18:21 59.48917 9.37524 23903 ft 283 kts 304°
2026-05-06 18:21 59.49796 9.35603 23904 ft 285 kts 304°
2026-05-06 18:21 59.51133 9.32679 23910 ft 288 kts 304°
2026-05-06 18:21 59.52636 9.28388 23913 ft 284 kts 293°
2026-05-06 18:22 59.53585 9.24992 23925 ft 285 kts 292°
2026-05-06 18:22 59.54539 9.21560 23911 ft 287 kts 292°
2026-05-06 18:22 59.55503 9.18093 23906 ft 288 kts 293°
2026-05-06 18:22 59.56457 9.14668 23901 ft 289 kts 292°
2026-05-06 18:23 59.57423 9.11201 23910 ft 290 kts 293°
2026-05-06 18:23 59.58391 9.07727 23892 ft 290 kts 292°
2026-05-06 18:23 59.59366 9.04228 23899 ft 291 kts 293°
2026-05-06 18:23 59.60339 9.00735 23880 ft 291 kts 292°
2026-05-06 18:24 59.61306 8.97260 23888 ft 291 kts 293°
2026-05-06 18:24 59.62289 8.93720 23884 ft 291 kts 292°
2026-05-06 18:24 59.63251 8.90253 23886 ft 290 kts 292°
2026-05-06 18:24 59.64225 8.86740 23889 ft 290 kts 293°
2026-05-06 18:25 59.64864 8.84430 23899 ft 290 kts 292°
2026-05-06 18:25 59.66154 8.79766 23880 ft 289 kts 293°
2026-05-06 18:25 59.67119 8.76266 23893 ft 289 kts 293°
2026-05-06 18:25 59.68083 8.72771 23877 ft 289 kts 293°
2026-05-06 18:26 59.69041 8.69285 23877 ft 289 kts 293°
2026-05-06 18:26 59.70002 8.65790 23896 ft 289 kts 293°
2026-05-06 18:26 59.70635 8.63481 23869 ft 289 kts 293°
2026-05-06 18:26 59.71903 8.58852 23881 ft 288 kts 293°
2026-05-06 18:27 59.72857 8.55362 23871 ft 288 kts 292°
2026-05-06 18:27 59.73812 8.51865 23859 ft 288 kts 292°
2026-05-06 18:27 59.74765 8.48371 23864 ft 287 kts 292°
2026-05-06 18:27 59.75704 8.44920 23847 ft 287 kts 293°
2026-05-06 18:28 59.76649 8.41443 23859 ft 286 kts 292°
2026-05-06 18:28 59.77275 8.39136 23857 ft 286 kts 292°
2026-05-06 18:28 59.78536 8.34486 23869 ft 285 kts 292°
2026-05-06 18:28 59.79475 8.31014 23864 ft 286 kts 292°
2026-05-06 18:29 59.80411 8.27549 23852 ft 286 kts 292°
2026-05-06 18:29 59.81346 8.24084 23869 ft 285 kts 292°
2026-05-06 18:29 59.82278 8.20622 23869 ft 285 kts 292°
2026-05-06 18:29 59.83202 8.17185 23789 ft 287 kts 292°
2026-05-06 18:30 59.84133 8.13711 23340 ft 286 kts 292°
2026-05-06 18:30 59.85072 8.10199 22875 ft 287 kts 292°
2026-05-06 18:30 59.86003 8.06710 22424 ft 287 kts 292°
2026-05-06 18:30 59.86936 8.03212 21961 ft 288 kts 292°
2026-05-06 18:31 59.87865 7.99726 21515 ft 288 kts 292°
2026-05-06 18:31 59.88808 7.96186 21072 ft 289 kts 292°
2026-05-06 18:31 59.89746 7.92656 20590 ft 289 kts 292°
2026-05-06 18:31 59.90677 7.89147 20141 ft 285 kts 292°
2026-05-06 18:32 59.91589 7.85708 19688 ft 280 kts 293°
2026-05-06 18:32 59.92479 7.82343 19233 ft 276 kts 292°
2026-05-06 18:32 59.93370 7.78971 18786 ft 273 kts 292°
2026-05-06 18:32 59.94242 7.75666 18337 ft 269 kts 293°
2026-05-06 18:33 59.95100 7.72410 17906 ft 267 kts 293°
2026-05-06 18:33 59.95959 7.69142 17444 ft 264 kts 294°
2026-05-06 18:33 59.96801 7.65937 17003 ft 262 kts 294°
2026-05-06 18:33 59.97644 7.62721 16553 ft 260 kts 294°
2026-05-06 18:34 59.98467 7.59580 16117 ft 258 kts 294°
2026-05-06 18:34 59.99300 7.56395 15662 ft 257 kts 294°
2026-05-06 18:34 60.00124 7.53240 15211 ft 255 kts 294°
2026-05-06 18:34 60.00940 7.50110 14773 ft 257 kts 295°
2026-05-06 18:35 60.01763 7.46952 14347 ft 260 kts 295°
2026-05-06 18:35 60.02594 7.43758 13906 ft 262 kts 295°
2026-05-06 18:35 60.03443 7.40494 13459 ft 264 kts 296°
2026-05-06 18:35 60.04291 7.37226 13012 ft 266 kts 296°
2026-05-06 18:36 60.05141 7.33944 12568 ft 268 kts 296°
2026-05-06 18:36 60.05988 7.30675 12131 ft 269 kts 296°
2026-05-06 18:36 60.06858 7.27308 11678 ft 271 kts 297°
2026-05-06 18:36 60.07708 7.24012 11230 ft 272 kts 297°
2026-05-06 18:37 60.08586 7.20606 10781 ft 273 kts 297°
2026-05-06 18:37 60.09154 7.18397 10488 ft 274 kts 298°
2026-05-06 18:37 60.10314 7.13884 9881 ft 275 kts 298°
2026-05-06 18:37 60.11171 7.10537 9858 ft 260 kts 298°
2026-05-06 18:38 60.11981 7.07364 9857 ft 249 kts 298°
2026-05-06 18:38 60.12765 7.04298 9860 ft 247 kts 298°
2026-05-06 18:38 60.13547 7.01242 9867 ft 245 kts 298°
2026-05-06 18:38 60.14320 6.98219 9865 ft 244 kts 298°
2026-05-06 18:39 60.14835 6.96199 9871 ft 243 kts 298°
2026-05-06 18:39 60.15858 6.92182 9867 ft 242 kts 298°
2026-05-06 18:39 60.16627 6.89153 9868 ft 242 kts 298°
2026-05-06 18:40 60.18143 6.83175 9863 ft 241 kts 298°
2026-05-06 18:40 60.18896 6.80199 9867 ft 240 kts 298°
2026-05-06 18:40 60.19659 6.77177 9859 ft 240 kts 298°
2026-05-06 18:40 60.20408 6.74211 9856 ft 240 kts 298°
2026-05-06 18:41 60.21164 6.71208 9862 ft 240 kts 298°
2026-05-06 18:41 60.21915 6.68222 9867 ft 240 kts 298°
2026-05-06 18:41 60.22661 6.65255 9871 ft 240 kts 298°
2026-05-06 18:41 60.23410 6.62268 9873 ft 240 kts 298°
2026-05-06 18:42 60.24165 6.59253 9878 ft 240 kts 298°
2026-05-06 18:42 60.24907 6.56274 9887 ft 240 kts 297°
2026-05-06 18:42 60.25647 6.53257 9895 ft 240 kts 297°
2026-05-06 18:42 60.26379 6.50263 9898 ft 240 kts 297°
2026-05-06 18:43 60.27116 6.47248 9901 ft 240 kts 297°
2026-05-06 18:43 60.27847 6.44252 9902 ft 240 kts 297°
2026-05-06 18:43 60.28586 6.41223 9905 ft 240 kts 297°
2026-05-06 18:43 60.29323 6.38199 9902 ft 240 kts 297°
2026-05-06 18:44 60.30056 6.35184 9900 ft 240 kts 297°
2026-05-06 18:44 60.30790 6.32165 9900 ft 240 kts 296°
2026-05-06 18:44 60.31520 6.29157 9900 ft 240 kts 296°
2026-05-06 18:44 60.32251 6.26140 9899 ft 240 kts 296°
2026-05-06 18:45 60.32983 6.23118 9905 ft 241 kts 296°
2026-05-06 18:45 60.33721 6.20064 9919 ft 240 kts 296°
2026-05-06 18:45 60.34450 6.17042 9931 ft 240 kts 296°
2026-05-06 18:45 60.34929 6.15058 9940 ft 240 kts 296°
2026-05-06 18:46 60.35907 6.10994 9952 ft 240 kts 296°
2026-05-06 18:46 60.36638 6.07953 9960 ft 240 kts 296°
2026-05-06 18:46 60.37358 6.04951 9970 ft 240 kts 296°
2026-05-06 18:46 60.38083 6.01929 9974 ft 240 kts 296°
2026-05-06 18:47 60.38815 5.98870 9984 ft 240 kts 296°
2026-05-06 18:47 60.39543 5.95821 9991 ft 240 kts 296°
2026-05-06 18:47 60.40262 5.92813 9993 ft 240 kts 296°
2026-05-06 18:47 60.40992 5.89748 9992 ft 241 kts 296°
2026-05-06 18:48 60.41713 5.86721 9992 ft 241 kts 296°
2026-05-06 18:48 60.42437 5.83675 9990 ft 241 kts 296°
2026-05-06 18:48 60.43168 5.80597 9993 ft 241 kts 296°
2026-05-06 18:48 60.43881 5.77584 9986 ft 236 kts 296°
2026-05-06 18:49 60.44578 5.74621 9961 ft 228 kts 296°
2026-05-06 18:49 60.45253 5.71764 9986 ft 227 kts 296°
2026-05-06 18:49 60.45944 5.68851 9998 ft 234 kts 296°
2026-05-06 18:49 60.46655 5.65844 10006 ft 238 kts 296°
2026-05-06 18:50 60.47472 5.62964 9965 ft 241 kts 310°
2026-05-06 18:50 60.48889 5.61243 9597 ft 245 kts 346°
2026-05-06 18:50 60.50580 5.61050 9194 ft 241 kts 358°
2026-05-06 18:50 60.52213 5.61120 8773 ft 236 kts 359°
2026-05-06 18:51 60.53842 5.60973 8341 ft 232 kts 346°
2026-05-06 18:51 60.55386 5.60032 7930 ft 233 kts 339°
2026-05-06 18:51 60.56835 5.58621 7494 ft 231 kts 319°
2026-05-06 18:51 60.57605 5.55899 7062 ft 226 kts 279°
2026-05-06 18:52 60.57373 5.52778 6660 ft 227 kts 251°
2026-05-06 18:52 60.56740 5.49815 6263 ft 232 kts 246°
2026-05-06 18:52 60.56024 5.46868 5855 ft 234 kts 245°
2026-05-06 18:52 60.55277 5.43994 5442 ft 230 kts 243°
2026-05-06 18:53 60.54510 5.41159 5024 ft 227 kts 242°
2026-05-06 18:53 60.53751 5.38425 4613 ft 225 kts 242°
2026-05-06 18:53 60.52965 5.35649 4196 ft 225 kts 242°
2026-05-06 18:53 60.52195 5.32971 3934 ft 215 kts 240°
2026-05-06 18:54 60.51428 5.30318 4006 ft 222 kts 240°
2026-05-06 18:54 60.50647 5.27643 3675 ft 222 kts 240°
2026-05-06 18:54 60.49883 5.24953 3238 ft 217 kts 241°
2026-05-06 18:54 60.49168 5.22340 2856 ft 211 kts 242°
2026-05-06 18:55 60.48696 5.20613 2606 ft 207 kts 242°
2026-05-06 18:55 60.47735 5.17474 2421 ft 185 kts 225°
2026-05-06 18:55 60.46599 5.16625 2445 ft 176 kts 179°
2026-05-06 18:55 60.45371 5.16873 2480 ft 183 kts 174°
2026-05-06 18:56 60.44082 5.17239 2483 ft 189 kts 173°
2026-05-06 18:56 60.42818 5.17610 2469 ft 179 kts 173°
2026-05-06 18:56 60.41604 5.17910 2468 ft 174 kts 175°
2026-05-06 18:56 60.40416 5.18167 2398 ft 175 kts 175°
2026-05-06 18:57 60.39177 5.18496 2079 ft 181 kts 172°
2026-05-06 18:57 60.37977 5.18914 1694 ft 167 kts 171°
2026-05-06 18:57 60.36881 5.19288 1522 ft 159 kts 172°
2026-05-06 18:57 60.35778 5.19628 1380 ft 163 kts 172°
2026-05-06 18:58 60.34688 5.20001 1084 ft 153 kts 170°
2026-05-06 18:58 60.33698 5.20348 840 ft 136 kts 171°
2026-05-06 18:58 60.32800 5.20593 456 ft 129 kts 171°
2026-05-06 18:58 60.31915 5.20898 1094 ft 127 kts 173°
2026-05-06 18:59 60.31021 5.21073 1592 ft 132 kts 176°
2026-05-06 18:59 60.30105 5.21134 1807 ft 138 kts 175°
2026-05-06 18:59 60.29150 5.21173 2080 ft 136 kts 197°
2026-05-06 18:59 60.28643 5.19653 1763 ft 162 kts 269°
2026-05-06 19:00 60.28225 5.18534 1867 ft 157 kts 208°
2026-05-06 19:00 60.26692 5.18459 1937 ft 181 kts 174°
2026-05-06 19:00 60.25416 5.18596 1959 ft 191 kts 187°
2026-05-06 19:00 60.24589 5.18004 1991 ft 189 kts 214°
2026-05-06 19:01 60.23297 5.15683 2350 ft 188 kts 224°
2026-05-06 19:01 60.22318 5.13916 2704 ft 187 kts 224°
2026-05-06 19:01 60.21365 5.12188 3084 ft 184 kts 224°
2026-05-06 19:01 60.20476 5.10426 3476 ft 178 kts 237°
2026-05-06 19:02 60.20192 5.08153 3859 ft 167 kts 274°
2026-05-06 19:02 60.20271 5.05748 3949 ft 184 kts 274°
2026-05-06 19:02 60.20337 5.03106 3908 ft 192 kts 274°
2026-05-06 19:02 60.20479 5.00479 3876 ft 189 kts 287°
2026-05-06 19:03 60.21230 4.98441 3869 ft 184 kts 325°
2026-05-06 19:03 60.22427 4.97758 3880 ft 181 kts 354°
2026-05-06 19:03 60.23672 4.97551 3876 ft 179 kts 353°
2026-05-06 19:03 60.24923 4.97317 3874 ft 178 kts 353°
2026-05-06 19:04 60.26136 4.97102 3874 ft 176 kts 353°
2026-05-06 19:04 60.27356 4.96887 3873 ft 175 kts 353°
2026-05-06 19:04 60.28556 4.96678 3872 ft 174 kts 353°
2026-05-06 19:04 60.29754 4.96474 3871 ft 173 kts 353°
2026-05-06 19:05 60.30954 4.96281 3867 ft 172 kts 353°
2026-05-06 19:05 60.32143 4.96090 3867 ft 171 kts 353°
2026-05-06 19:05 60.33317 4.95900 3869 ft 170 kts 353°
2026-05-06 19:05 60.34486 4.95707 3869 ft 169 kts 353°
2026-05-06 19:06 60.35646 4.95508 3869 ft 168 kts 353°
2026-05-06 19:06 60.36811 4.95308 3867 ft 167 kts 353°
2026-05-06 19:06 60.37964 4.95105 3868 ft 166 kts 353°
2026-05-06 19:06 60.39130 4.94901 3863 ft 177 kts 353°
2026-05-06 19:07 60.40396 4.94675 3879 ft 187 kts 353°
2026-05-06 19:07 60.41275 4.94517 3878 ft 191 kts 353°
2026-05-06 19:07 60.43055 4.94193 3877 ft 195 kts 353°
2026-05-06 19:07 60.44414 4.93945 3877 ft 198 kts 353°
2026-05-06 19:08 60.45800 4.93697 3876 ft 202 kts 353°
2026-05-06 19:08 60.47187 4.93448 3867 ft 199 kts 353°
2026-05-06 19:08 60.48543 4.93234 3861 ft 195 kts 353°
2026-05-06 19:08 60.49844 4.92734 3855 ft 189 kts 352°
2026-05-06 19:09 60.51102 4.93323 3853 ft 185 kts 30°
2026-05-06 19:09 60.52135 4.94772 3859 ft 181 kts 33°
2026-05-06 19:09 60.53166 4.96204 3859 ft 177 kts 33°
2026-05-06 19:09 60.54124 4.97716 3847 ft 173 kts 50°
2026-05-06 19:10 60.54500 4.99885 3841 ft 163 kts 91°
2026-05-06 19:10 60.54439 5.02217 3871 ft 171 kts 93°
2026-05-06 19:10 60.54329 5.04686 3874 ft 183 kts 107°
2026-05-06 19:10 60.53612 5.06806 3886 ft 189 kts 142°
2026-05-06 19:11 60.52586 5.08435 3752 ft 179 kts 143°
2026-05-06 19:11 60.51637 5.09963 3541 ft 171 kts 143°
2026-05-06 19:11 60.50718 5.11425 3349 ft 168 kts 143°
2026-05-06 19:11 60.49791 5.12892 3178 ft 172 kts 143°
2026-05-06 19:12 60.48843 5.14383 2994 ft 169 kts 143°
2026-05-06 19:12 60.47892 5.15499 3008 ft 153 kts 168°
2026-05-06 19:12 60.46817 5.15788 3057 ft 162 kts 175°
2026-05-06 19:12 60.46072 5.16031 3063 ft 165 kts 170°
2026-05-06 19:13 60.44572 5.16641 3058 ft 166 kts 172°
2026-05-06 19:13 60.43428 5.17037 2883 ft 169 kts 172°
2026-05-06 19:13 60.42291 5.17441 2610 ft 159 kts 171°
2026-05-06 19:13 60.41211 5.17813 2387 ft 150 kts 172°
2026-05-06 19:14 60.40232 5.18152 2083 ft 141 kts 172°
2026-05-06 19:14 60.39272 5.18449 2018 ft 142 kts 173°
2026-05-06 19:14 60.38271 5.18760 1932 ft 149 kts 172°
2026-05-06 19:14 60.37274 5.19109 1621 ft 143 kts 171°
2026-05-06 19:15 60.36310 5.19450 1415 ft 140 kts 172°
2026-05-06 19:15 60.35363 5.19766 1205 ft 137 kts 171°
2026-05-06 19:15 60.34431 5.20080 1021 ft 135 kts 171°
2026-05-06 19:15 60.33518 5.20404 842 ft 133 kts 170°
2026-05-06 19:16 60.32614 5.20737 667 ft 131 kts 171°
2026-05-06 19:16 60.31687 5.21040 496 ft 140 kts 171°
2026-05-06 19:16 60.30728 5.21351 253 ft 137 kts 171°
2026-05-06 19:16 60.29848 5.21644 148 ft 108 kts 171°
2026-05-06 19:17 60.29337 5.21819 154 ft 42 kts 169°
2026-05-06 19:17 60.29096 5.21896 163 ft 29 kts 172°
2026-05-06 19:17 60.28959 5.21940 165 ft 14 kts 169°
2026-05-06 19:17 60.28907 5.22055 166 ft 10 kts 87°
2026-05-06 19:18 60.28915 5.22137 167 ft 2 kts 79°
2026-05-06 19:18 60.28916 5.22160 168 ft 0 kts 80°
2026-05-06 19:18 60.28920 5.22199 169 ft 7 kts 81°
2026-05-06 19:18 60.28905 5.22280 170 ft 5 kts 144°
2026-05-06 19:19 60.28854 5.22300 171 ft 8 kts 170°
2026-05-06 19:19 60.28744 5.22337 170 ft 17 kts 169°
2026-05-06 19:19 60.28682 5.22423 170 ft 9 kts 93°
2026-05-06 19:19 60.28663 5.22530 171 ft 7 kts 90°
2026-05-06 19:20 60.28670 5.22628 171 ft 6 kts 80°
2026-05-06 19:20 60.28677 5.22709 173 ft 4 kts 83°
2026-05-06 19:20 60.28661 5.22750 173 ft 7 kts 162°
2026-05-06 19:20 60.28648 5.22805 173 ft 6 kts 81°
2026-05-06 19:21 60.28654 5.22883 176 ft 3 kts 80°
2026-05-06 19:21 60.28657 5.22925 178 ft 2 kts 80°
2026-05-06 19:21 60.28657 5.22926 178 ft 0 kts 80°